Weather History for Cincinnati, OH

Change the Weather History Date:

Tuesday, September 17, 2013

  Actual Average Record
Temperature  
Mean Temperature 60 °F -  
Max Temperature 77 °F 77 °F 91 °F (1970)
Min Temperature 46 °F 56 °F 40 °F (1959)
Degree Days  
Heating Degree Days 4    
Growing Degree Days 10 (Base 50)    
Moisture  
Dew Point 51 °F    
Average Humidity 75    
Maximum Humidity 100    
Minimum Humidity 41    
Precipitation  
Precipitation 0.00 in - - ()
Sea Level Pressure  
Sea Level Pressure 30.27 in    
Wind  
Wind Speed 3 mph (NE)    
Max Wind Speed 10 mph    
Max Gust Speed -    
Visibility 9 miles    
Events Fog    
Averages and records for this station are not official NWS values.
T = Trace of Precipitation, MM = Missing Value Source: NWS Daily Summary

Daily Weather History Graph

Daily Weather History Graph

Search for Another Location

Airport:

Trip Planner

Search our weather history database for the weather conditions in past years. The results will help you decide how hot, cold, wet, or windy it might be!

Date:

Astronomy

Sep. 17, 2013 Rise Set
Actual Time 7:21 AM EDT 7:42 PM EDT
Civil Twilight 6:54 AM EDT 8:09 PM EDT
Nautical Twilight 6:22 AM EDT 8:40 PM EDT
Astronomical Twilight 5:50 AM EDT 9:12 PM EDT
Moon 6:28 PM EDT (9/17) 5:15 AM EDT (9/17)
Length of Visible Light 13h 14m
Length of Day
12h 21m
Waxing Gibbous, 96% of the Moon is Illuminated
Sep 17
Waxing Gibbous
Sep 19
Full
Sep 26
Last Quarter
Oct 4
New
Oct 11
First Quarter

Hourly Weather History & Observations

Time (EDT) Temp. Dew Point Humidity Pressure Visibility Wind Dir Wind Speed Gust Speed Precip Events Conditions
12:53 AM 55.9 °F 51.1 °F 84% 30.31 in 10.0 mi NNE 5.8 mph - N/A   Clear
1:53 AM 53.1 °F 50.0 °F 89% 30.32 in 10.0 mi Calm Calm - N/A   Clear
2:53 AM 54.0 °F 50.0 °F 86% 30.32 in 10.0 mi NNE 4.6 mph - N/A   Clear
3:53 AM 52.0 °F 48.9 °F 89% 30.32 in 10.0 mi Calm Calm - N/A   Clear
4:53 AM 50.0 °F 48.9 °F 96% 30.32 in 10.0 mi Calm Calm - N/A   Clear
5:53 AM 48.9 °F 48.0 °F 97% 30.32 in 1.8 mi Calm Calm - N/A   Clear
6:08 AM 48.2 °F 48.2 °F 100% 30.32 in 3.0 mi Calm Calm - N/A   Clear
6:34 AM 48.2 °F 48.2 °F 100% 30.32 in 1.8 mi Calm Calm - N/A   Clear
6:48 AM 48.2 °F 48.2 °F 100% 30.32 in 0.5 mi Calm Calm - N/A Fog Fog
6:53 AM 48.0 °F 46.9 °F 96% 30.32 in 10.0 mi Calm Calm - N/A Fog Patches of Fog
7:53 AM 46.9 °F 46.9 °F 100% 30.33 in 10.0 mi Calm Calm - N/A Fog Patches of Fog
8:53 AM 53.1 °F 51.1 °F 93% 30.34 in 10.0 mi NNE 3.5 mph - N/A   Clear
9:53 AM 60.1 °F 52.0 °F 75% 30.34 in 10.0 mi NE 5.8 mph - N/A   Clear
10:53 AM 64.9 °F 54.0 °F 68% 30.34 in 10.0 mi North 5.8 mph - N/A   Clear
11:53 AM 69.1 °F 54.0 °F 58% 30.32 in 10.0 mi NNE 6.9 mph - N/A   Clear
12:53 PM 72.0 °F 54.0 °F 53% 30.30 in 10.0 mi ENE 9.2 mph - N/A   Scattered Clouds
1:53 PM 73.0 °F 52.0 °F 48% 30.27 in 10.0 mi ENE 10.4 mph - N/A   Clear
2:53 PM 75.0 °F 52.0 °F 44% 30.23 in 10.0 mi East 6.9 mph - N/A   Clear
3:53 PM 75.0 °F 51.1 °F 43% 30.21 in 10.0 mi ENE 9.2 mph - N/A   Clear
4:53 PM 75.0 °F 51.1 °F 43% 30.20 in 10.0 mi East 3.5 mph - N/A   Clear
5:53 PM 75.0 °F 50.0 °F 41% 30.19 in 10.0 mi Variable 5.8 mph - N/A   Clear
6:53 PM 73.0 °F 52.0 °F 48% 30.18 in 10.0 mi ENE 9.2 mph - N/A   Clear
7:53 PM 66.0 °F 53.1 °F 63% 30.18 in 10.0 mi NE 4.6 mph - N/A   Clear
8:53 PM 63.0 °F 55.0 °F 75% 30.19 in 10.0 mi NE 4.6 mph - N/A   Clear
9:53 PM 62.1 °F 55.0 °F 78% 30.19 in 10.0 mi NE 3.5 mph - N/A   Clear
10:53 PM 60.1 °F 54.0 °F 80% 30.19 in 10.0 mi Calm Calm - N/A   Clear
11:53 PM 57.0 °F 54.0 °F 89% 30.18 in 10.0 mi Calm Calm - N/A   Clear